Weather History for KAEG - November, 2013

Change the Weather History Date:

Saturday, November 23, 2013

  Actual Average Record
Temperature  
Mean Temperature 28 °F -  
Max Temperature 32 °F - - ()
Min Temperature 24 °F - - ()
Degree Days  
Heating Degree Days 37    
Moisture  
Dew Point 23 °F    
Average Humidity 76    
Maximum Humidity 86    
Minimum Humidity 64    
Precipitation  
Precipitation 0.00 in - - ()
Sea Level Pressure  
Sea Level Pressure 30.34 in    
Wind  
Wind Speed 19 mph (SE)    
Max Wind Speed 32 mph    
Max Gust Speed 40 mph    
Visibility 9 miles    
Events Snow    
T = Trace of Precipitation, MM = Missing Value Source: NWS Daily Summary

Daily Weather History Graph

Daily Weather History Graph

Search for Another Location

Airport or City:

Trip Planner

Search our weather history database for the weather conditions in past years. The results will help you decide how hot, cold, wet, or windy it might be!

Date:

Astronomy

Nov. 23, 2013 Rise Set
Actual Time 6:50 AM MST 4:57 PM MST
Civil Twilight 6:22 AM MST 5:24 PM MST
Nautical Twilight 5:51 AM MST 5:55 PM MST
Astronomical Twilight 5:21 AM MST 6:25 PM MST
Moon 10:23 PM MST (11/23) 11:12 AM MST (11/23)
Length of Visible Light 11h 01m
Length of Day
10h 07m
Waning Gibbous, 69% of the Moon is Illuminated
Nov 23
Waning Gibbous
Nov 25
Last Quarter
Dec 2
New
Dec 9
First Quarter
Dec 17
Full

Hourly Weather History & Observations

Time (MST) Temp. Windchill Dew Point Humidity Pressure Visibility Wind Dir Wind Speed Gust Speed Precip Events Conditions
12:15 AM 32.0 °F 22.5 °F 25.7 °F 78% 30.35 in 10.0 mi SE 12.7 mph - N/A   Overcast
12:35 AM 32.2 °F 22.3 °F 26.2 °F 79% 30.34 in 10.0 mi SE 13.8 mph - N/A   Overcast
12:55 AM 32.0 °F 21.6 °F 26.1 °F 79% 30.33 in 10.0 mi SE 15.0 mph - N/A   Overcast
1:15 AM 32.0 °F 21.2 °F 26.2 °F 79% 30.34 in 10.0 mi SSE 16.1 mph - N/A   Overcast
1:35 AM 31.8 °F 21.0 °F 25.7 °F 78% 30.33 in 10.0 mi SE 16.1 mph 21.9 mph N/A   Overcast
1:55 AM 31.8 °F 20.2 °F 25.7 °F 78% 30.33 in 10.0 mi SE 18.4 mph - N/A   Overcast
2:15 AM 32.0 °F 23.0 °F 26.1 °F 79% 30.34 in 10.0 mi SE 11.5 mph - N/A   Overcast
2:35 AM 32.0 °F 21.6 °F 26.4 °F 80% 30.35 in 10.0 mi SE 15.0 mph - N/A   Overcast
2:55 AM 31.1 °F 18.3 °F 25.7 °F 80% 30.34 in 7.0 mi SE 21.9 mph 26.5 mph N/A Snow Light Snow
3:15 AM 31.3 °F 20.3 °F 25.0 °F 77% 30.34 in 10.0 mi SE 16.1 mph - N/A   Overcast
3:35 AM 31.6 °F 20.7 °F 25.3 °F 78% 30.34 in 10.0 mi SE 16.1 mph - N/A   Overcast
3:55 AM 32.0 °F 20.8 °F 24.8 °F 75% 30.35 in 10.0 mi ESE 17.3 mph 24.2 mph N/A   Overcast
4:15 AM 29.7 °F 15.8 °F 26.1 °F 86% 30.35 in 2.5 mi ESE 24.2 mph 29.9 mph N/A Snow Light Snow
4:35 AM 30.2 °F 17.4 °F 25.2 °F 82% 30.35 in 7.0 mi SE 20.7 mph 29.9 mph N/A Snow Light Snow
5:50 AM 30.2 °F 18.1 °F 24.8 °F 80% 30.35 in 10.0 mi ESE 18.4 mph - N/A   Overcast
6:50 AM 30.2 °F 17.4 °F 24.8 °F 80% 30.37 in 5.0 mi SE 20.7 mph - N/A Snow Light Snow
7:50 AM 30.2 °F 18.9 °F 23.0 °F 75% 30.38 in 10.0 mi SE 16.1 mph - N/A   Overcast
8:50 AM 30.2 °F 16.8 °F 23.0 °F 75% 30.41 in 10.0 mi SE 23.0 mph - N/A   Overcast
10:50 AM 30.2 °F 14.7 °F 23.0 °F 75% 30.41 in 10.0 mi SE 32.2 mph - N/A   Overcast
11:50 AM 32.0 °F 18.4 °F 23.0 °F 69% 30.37 in 10.0 mi SE 26.5 mph - N/A   Overcast
12:50 PM 30.2 °F 15.9 °F 23.0 °F 75% 30.34 in 10.0 mi SE 26.5 mph 39.1 mph N/A   Overcast
1:50 PM 30.2 °F 15.9 °F 23.0 °F 75% 30.33 in 10.0 mi ESE 26.5 mph 39.1 mph N/A   Overcast
2:50 PM 30.2 °F 15.9 °F 21.2 °F 69% 30.30 in 10.0 mi ESE 26.5 mph 39.1 mph N/A   Overcast
3:50 PM 30.2 °F 15.7 °F 19.4 °F 64% 30.31 in 10.0 mi ESE 27.6 mph - N/A   Overcast
4:50 PM 30.2 °F 16.8 °F 19.4 °F 64% 30.30 in 10.0 mi SE 23.0 mph 34.5 mph N/A   Overcast
5:50 PM 28.4 °F 12.7 °F 19.4 °F 69% 30.32 in 10.0 mi ESE 29.9 mph 35.7 mph N/A   Overcast
6:48 PM 26.6 °F 11.4 °F 19.4 °F 74% 30.33 in 10.0 mi ESE 25.3 mph 36.8 mph N/A   Overcast
7:50 PM 26.6 °F 11.7 °F 19.4 °F 74% 30.33 in 10.0 mi ESE 24.2 mph 27.6 mph N/A   Overcast
8:50 PM 26.6 °F 11.1 °F 19.4 °F 74% 30.34 in 10.0 mi ESE 26.5 mph 32.2 mph N/A   Overcast
9:15 PM 26.6 °F 11.4 °F 19.2 °F 74% 30.33 in 10.0 mi SE 25.3 mph 29.9 mph N/A   Overcast
9:35 PM 26.6 °F 10.8 °F 18.5 °F 71% 30.33 in 10.0 mi SE 27.6 mph 34.5 mph N/A   Overcast
9:55 PM 26.4 °F 10.3 °F 18.3 °F 71% 30.34 in 5.0 mi ESE 28.8 mph 40.3 mph N/A Snow Light Snow
10:15 PM 25.7 °F 10.8 °F 18.9 °F 75% 30.34 in 5.0 mi ESE 23.0 mph 32.2 mph N/A Snow Light Snow
10:35 PM 26.2 °F 10.9 °F 18.3 °F 72% 30.35 in 10.0 mi ESE 25.3 mph 29.9 mph N/A   Overcast
10:55 PM 24.6 °F 9.7 °F 20.1 °F 83% 30.35 in 10.0 mi ESE 21.9 mph 28.8 mph N/A Snow Light Snow
11:15 PM 24.3 °F 9.6 °F 20.5 °F 85% 30.35 in 7.0 mi ESE 20.7 mph 29.9 mph N/A   Overcast
11:35 PM 25.2 °F 10.4 °F 18.5 °F 76% 30.35 in 10.0 mi ESE 21.9 mph 28.8 mph N/A   Overcast
11:55 PM 24.8 °F 10.7 °F 18.5 °F 77% 30.34 in 5.0 mi ESE 19.6 mph 31.1 mph N/A   Haze